Showing default

TELSTAR 1, 340

Orbit data source: Space-Track

TELSTAR 1, 340 is a payload satellite owned by AT&T (US) in LEO that was launched on Tue, 10 Jul 1962 UTC via a THOR DELTA launch vehicle from the Air Force Eastern Test Range (AFETR). Payload-class satellites include a variety of spacecraft equipped with specific instruments for various scientific and technological missions. These include communications satellites like Starlink; space stations such as the ISS; scientific satellites like the Hubble; Earth observation satellites from companies like Planet Labs, Umbra, and HawkEye 360; GPS; miniature CubeSats for education and research; and military/defense satellites.

Loading next visibility...
Identifier
340, 1962-029A
Orbit
LEO
Country
Flag of USUS
Related business
Manufacturer
AT&T/BTL
Mission
Spacecraft
Bus & Motor
TSX, Unknown motor
Mass
77 kg wet, 77 kg dry
Launch date (UTC)
1962-07-10 (63 years ago)
Launch vehicle
THOR DELTA
Launch site
Air Force Eastern Test Range (AFETR)
Object type
Payload
Rocket body
Debris
Shape & HBR
Unknown
Radar Cross Section
Medium (>0.1 m² and <1 m²)

Expand to show TLE details & history
Last TLE update: 1 day ago

TLE from 1 day ago
0 TELSTAR 1
1 00340U 62029A   25296.72773314 -.00000083  00000-0 -30697-3 0  9995
2 00340  44.8022  40.0146 2424276  32.1774  91.5164  9.12884410110853
Epoch: 2025-10-23T17:27Z
TLE epoch observation values (Epoch: 2025-10-23T17:27:56.143Z)
Latitude
20.49578°
Longitude
-96.37497°
Altitude
3,896.689 km
Speed
6.034 km/s
True Right ascension
13h 11m 58s
True Declination
20° 25' 03"
Sunlit
Object was in daylight at epoch
Visualization orbit readout
Latitude
Unknown
Longitude
Unknown
Altitude
Unknown
Speed
Unknown
Apparent Right ascension
Unknown
Apparent Declination
Unknown
Sunlit
N/A
Visualization observer readout
Local Sidereal Time
13:05:39
Azimuth
Unknown
Elevation
Unknown
Doppler factor
Unknown
Orbital elements
Apogee altitude
5,638.598 km
Perigee altitude
949.088 km
Semi-major axis
9,671.98 km
Eccentricity
0.24243
Inclination
44.8022°
RAAN
40.0146°
Arg. of periapsis
32.1774°
True anomaly
118.08423°
Mean anomaly
91.5164°
Eccentric anomaly
104.93712°
Mean motion
2.28176 °/min
Orbital period
157.77 mins
BSTAR
-0.00030697
Loading maneuver chart data...
Computing Atmospheric mass density...
Loading historical data...
Loading historical data...
Loading historical data...
Loading historical data...
Loading historical data...
Loading historical data...
Loading historical data...
Other satellites on launch #29 in the year 1962 (1962-07-10 UTC)

Documentation

Showing up to 5 results
|